Weather History for Baker, MT

Change the Weather History Date:

Tuesday, November 20, 2012

  Actual Average Record
Temperature  
Mean Temperature 44 °F -  
Max Temperature 61 °F 22 °F 61 °F (2012)
Min Temperature 26 °F 2 °F -9 °F (2011)
Degree Days  
Heating Degree Days 22    
Moisture  
Dew Point 28 °F    
Average Humidity 58    
Maximum Humidity 84    
Minimum Humidity 31    
Precipitation  
Precipitation 0.00 in - - ()
Sea Level Pressure  
Sea Level Pressure 29.93 in    
Wind  
Wind Speed 6 mph (SSE)    
Max Wind Speed 13 mph    
Max Gust Speed -    
Visibility 10 miles    
Events      
Averages and records for this station are not official NWS values.
T = Trace of Precipitation, MM = Missing Value Source: NWS Daily Summary

Daily Weather History Graph

Daily Weather History Graph

Search for Another Location

Airport:

Trip Planner

Search our weather history database for the weather conditions in past years. The results will help you decide how hot, cold, wet, or windy it might be!

Date:

Astronomy

Nov. 20, 2012 Rise Set
Actual Time 7:06 AM MST 4:18 PM MST
Civil Twilight 6:33 AM MST 4:52 PM MST
Nautical Twilight 5:56 AM MST 5:29 PM MST
Astronomical Twilight 5:20 AM MST 6:04 PM MST
Moon 12:29 PM MST No Moon Set
Length of Visible Light 10h 19m
Length of Day
9h 12m
First Quarter, 52% of the Moon is Illuminated
Nov 20
First Quarter
Nov 28
Full
Dec 6
Last Quarter
Dec 13
New
Dec 19
First Quarter

Hourly Weather History & Observations

Time (MST) Temp. Windchill Dew Point Humidity Pressure Visibility Wind Dir Wind Speed Gust Speed Precip Events Conditions
12:51 AM 34.0 °F 27.2 °F 25.0 °F 70% 29.99 in 10.0 mi East 8.1 mph - N/A   Clear
1:51 AM 36.0 °F 29.0 °F 26.1 °F 67% 29.97 in 10.0 mi ESE 9.2 mph - N/A   Clear
2:51 AM 32.0 °F 25.6 °F 24.1 °F 73% 29.98 in 10.0 mi East 6.9 mph - N/A   Clear
3:51 AM 30.0 °F 23.2 °F 24.1 °F 79% 29.98 in 10.0 mi ESE 6.9 mph - N/A   Clear
4:51 AM 28.0 °F 22.8 °F 23.0 °F 81% 29.99 in 10.0 mi SE 4.6 mph - N/A   Clear
5:51 AM 27.0 °F 21.6 °F 21.9 °F 81% 29.99 in 10.0 mi ESE 4.6 mph - N/A   Clear
6:51 AM 26.1 °F 20.5 °F 21.9 °F 84% 30.01 in 10.0 mi NW 4.6 mph - N/A   Clear
7:51 AM 28.9 °F - 24.1 °F 82% 29.99 in 10.0 mi Calm Calm - N/A   Clear
8:51 AM 36.0 °F - 28.9 °F 76% 29.99 in 10.0 mi Calm Calm - N/A   Clear
11:51 AM 55.9 °F - 30.9 °F 39% 29.94 in 10.0 mi Calm Calm - N/A   Clear
12:51 PM 57.9 °F - 30.0 °F 35% 29.93 in 10.0 mi Calm Calm - N/A   Clear
1:51 PM 60.1 °F - 30.9 °F 33% 29.90 in 10.0 mi WSW 9.2 mph - N/A   Clear
2:51 PM 61.0 °F - 30.0 °F 31% 29.90 in 10.0 mi SW 8.1 mph - N/A   Clear
3:51 PM 55.0 °F - 30.9 °F 40% 29.92 in 10.0 mi Calm Calm - N/A   Clear
4:51 PM 50.0 °F - 30.0 °F 46% 29.93 in 10.0 mi SSW 10.4 mph - N/A   Clear
5:51 PM 48.0 °F - 30.0 °F 50% 29.93 in 10.0 mi Calm Calm - N/A   Clear
6:51 PM 45.0 °F 42.6 °F 28.9 °F 53% 29.93 in 10.0 mi South 4.6 mph - N/A   Clear
7:51 PM 43.0 °F - 30.0 °F 60% 29.92 in 10.0 mi Calm Calm - N/A   Clear
8:51 PM 53.1 °F - 30.9 °F 43% 29.88 in 10.0 mi South 12.7 mph - N/A   Scattered Clouds
9:51 PM 51.1 °F - 30.9 °F 46% 29.85 in 10.0 mi South 9.2 mph - N/A   Clear
10:51 PM 44.1 °F - 30.9 °F 60% 29.84 in 10.0 mi Calm Calm - N/A   Clear
11:51 PM 48.0 °F - 30.9 °F 52% 29.81 in 10.0 mi Variable 3.5 mph - N/A   Clear